Terminal Aerodrome Forecast
Issued by NWS

Home | Current Version | Previous Version | Text Only | Print | Product List | Glossary On
Versions: 1 2 3 4 5 6 7 8 9 10 11 12 13 14 15 16 17 18 19 20 21 22 23 24 25 26 27 28 29 30 31 32 33 34 35 36 37 38 39 40 41 42 43 44 45 46 47 48 49 50
000
FTUS41 KCTP 211136
TAFJST
TAF
KJST 211136Z 2112/2212 27007KT 1/4SM -SHRA FG BKN002 OVC015
     FM211400 33007KT 2SM -SHRA BR OVC004
     FM211700 34008KT P6SM VCSH OVC015
     FM220500 35008KT 4SM -SHRA BR BKN004 OVC009=

USA.gov is the U.S. government's official web portal to all federal, state and local government web resources and services.